Back to catalog

COSMOS 2251 DEB

AliveLEO
NORAD 33819·DEBRIS·🇷🇺 Russia

Launched Jun 16, 1993 from Plesetsk Cosmodrome

Loading…

Next Passes (next 24 hours)

TLE

FreshSource: Space-Track

Epoch: Sep 14, 2026, 10:36 UTC

1 33819U 93036BL  26257.44201940  .00001161  00000-0  41459-3 0  9996
2 33819  74.1774  70.7458 0088460 214.4223 165.0168 14.33065874914441

Track COSMOS 2251 DEB in real time with AllMySat

Download on the App Store